CZ-6A DEB, 60646

Orbit data source: Space-Track

CZ-6A DEB, 60646 is space debris in LEO originally from a launch on Tue, 06 Aug 2024 UTC launched from the Taiyaun Space Center, China (TSC). Debris objects in space refer to the collection of defunct objects orbiting the Earth. Examples of debris include non-operational satellites, rocket bodies, and fragments generated from explosions, collisions, or faulty payload assembly.

Loading next visibility...
Identifier
60646, 2024-140AX
Orbit
LEO
Country
Flag of CNCN / PRC
Related business
Manufacturer
SAST
Mission
Spacecraft
Bus & Motor
Unknown
Mass
Unknown
Launch date (UTC)
2024-08-06 (2 years ago)
Launch vehicle
Unknown
Launch site
Taiyaun Space Center, China (TSC)
Object type
Payload
Rocket body
Debris
Shape & HBR
Unknown shape, 0.1 m
Radar Cross Section
Medium (>0.1 m² and <1 m²)

Expand to show TLE details & history
Last TLE update: 14 hours ago

TLE from 14 hours ago
0 CZ-6A DEB
1 60646U 24140AX  26171.28523324  .00009079  00000-0  15649-2 0  9991
2 60646  89.0052 269.7968 0075488 226.5618 132.9302 14.66562574 99292
Epoch: 2026-06-20T06:50Z
TLE epoch observation values (Epoch: 2026-06-20T06:50:44.151Z)
Latitude
-0.00004°
Longitude
-101.38921°
Altitude
711.653 km
Speed
7.48 km/s
True Right ascension
17h 59m 11s
True Declination
0° 00' 00"
Sunlit
Object was in full shadow at epoch
Visualization orbit readout
Latitude
Unknown
Longitude
Unknown
Altitude
Unknown
Speed
Unknown
Apparent Right ascension
Unknown
Apparent Declination
Unknown
Sunlit
N/A
Visualization observer readout
Local Sidereal Time
07:20:20
Azimuth
Unknown
Elevation
Unknown
Doppler factor
Unknown
Orbital elements
Apogee altitude
722.145 km
Perigee altitude
615.751 km
Semi-major axis
7,047.085 km
Eccentricity
0.00755
Inclination
89.0052°
RAAN
269.7968°
Arg. of periapsis
226.5618°
True anomaly
133.5595°
Mean anomaly
132.9302°
Eccentric anomaly
133.24526°
Mean motion
3.66884 °/min
Orbital period
98.12 mins
BSTAR
0.0015649
Loading maneuver chart data...
Computing Atmospheric mass density...
Loading historical data...
Loading historical data...
Loading historical data...
Loading historical data...
Loading historical data...
Loading historical data...
Loading historical data...

Documentation

Showing up to 5 results
|